Yangon, Myanmar

6:22 PM +0630 on October 17, 2018 (GMT +0630)
Yangon International

Weather History for VYYY - August, 2018

Change the Weather History Date:

Friday, August 10, 2018

  Actual Average Record
Temperature  
Mean Temperature 77 °F -  
Max Temperature 85 °F - - ()
Min Temperature 69 °F - - ()
Cooling Degree Days 12    
Growing Degree Days 27 (Base 50)    
Moisture  
Dew Point 76 °F    
Average Humidity 84    
Maximum Humidity 94    
Minimum Humidity 70    
Precipitation  
Precipitation 0.00 in - - ()
Sea Level Pressure  
Sea Level Pressure 29.70 in    
Wind  
Wind Speed 6 mph ()    
Max Wind Speed 12 mph    
Max Gust Speed 23 mph    
Visibility 4.2 miles    
Events Rain    
T = Trace of Precipitation, MM = Missing Value Source: Averaged Metar Reports

Daily Weather History Graph

Daily Weather History Graph

Search for Another Location

Airport or City:

Astronomy

Aug. 10, 2018 Rise Set
Actual Time 5:47 AM +0630 6:33 PM +0630
Civil Twilight 5:25 AM +0630 6:56 PM +0630
Nautical Twilight 4:58 AM +0630 7:22 PM +0630
Astronomical Twilight 4:31 AM +0630 7:49 PM +0630
Moon 4:18 AM +0630 (8/10) 5:39 PM +0630 (8/10)
Length of Visible Light 13h 31m
Length of Day
12h 46m
Waning Crescent, 2% of the Moon is Illuminated
Aug 10
Waning Crescent
Aug 11
New
Aug 18
First Quarter
Aug 26
Full
Sep 3
Last Quarter

Hourly Weather History & Observations

Time (+0630) Temp. Heat Index Dew Point Humidity Pressure Visibility Wind Dir Wind Speed Gust Speed Precip Events Conditions
12:00 AM 78.8 °F - 77.0 °F 94% 29.71 in 3.7 mi SW 5.8 mph - N/A   Overcast
12:30 AM 78.8 °F - 77.0 °F 94% 29.71 in 3.7 mi SW 5.8 mph - N/A   Overcast
1:30 AM 78.8 °F - 77.0 °F 94% 29.71 in 3.7 mi SW 10.4 mph - N/A   Overcast
2:00 AM 78.8 °F - 77.0 °F 94% 29.68 in 3.7 mi SW 3.5 mph - N/A   Overcast
4:00 AM 78.8 °F - 77.0 °F 94% 29.68 in 3.7 mi SW 6.9 mph - N/A   Overcast
5:30 AM 78.8 °F - 77.0 °F 94% 29.68 in 4.3 mi SW 11.5 mph - N/A   Mostly Cloudy
6:00 AM 78.8 °F - 77.0 °F 94% 29.68 in 4.3 mi SW 5.8 mph - N/A   Overcast
6:30 AM 77 °F - 76 °F 94% 29.74 in 4 mi WSW 1.2 mph - -   Overcast
6:30 AM 78.8 °F - 77.0 °F 94% 29.68 in 4.3 mi WSW 6.9 mph - N/A   Overcast
7:00 AM 78.8 °F - 77.0 °F 94% 29.71 in 4.3 mi SW 6.9 mph - N/A   Partly Cloudy
8:00 AM 82.4 °F 88.2 °F 73.4 °F 74% 29.71 in 4.3 mi SW 5.8 mph - N/A   Mostly Cloudy
8:30 AM 82.4 °F 88.2 °F 73.4 °F 74% 29.71 in 4.3 mi SW 8.1 mph - N/A   Mostly Cloudy
9:00 AM 82.4 °F 88.2 °F 73.4 °F 74% 29.74 in 4.3 mi SW 9.2 mph - N/A   Mostly Cloudy
9:30 AM 82 °F - 77 °F 81% 29.79 in 4 mi SW 3.5 mph - -   Mostly Cloudy
9:30 AM 82.4 °F 90.9 °F 77.0 °F 84% 29.74 in 4.3 mi WSW 10.4 mph - N/A   Mostly Cloudy
10:30 AM 86.0 °F 95.1 °F 75.2 °F 70% 29.74 in 4.3 mi WSW 11.5 mph - N/A   Mostly Cloudy
11:00 AM 86.0 °F 96.9 °F 77.0 °F 74% 29.74 in 4.3 mi West 5.8 mph 17.3 mph N/A   Overcast
11:30 AM 84.2 °F 96.1 °F 78.8 °F 84% 29.71 in 4.3 mi West 5.8 mph - N/A   Mostly Cloudy
12:00 PM 82.4 °F 90.9 °F 77.0 °F 84% 29.71 in 4.3 mi WSW 5.8 mph 17.3 mph N/A   Mostly Cloudy
1:00 PM 84.2 °F 92.3 °F 75.2 °F 74% 29.71 in 4.3 mi West 5.8 mph 17.3 mph N/A   Mostly Cloudy
1:30 PM 84.2 °F 92.3 °F 75.2 °F 74% 29.68 in 4.3 mi SSW 11.5 mph - N/A   Mostly Cloudy
2:00 PM 86.0 °F 96.9 °F 77.0 °F 74% 29.68 in 4.3 mi West 11.5 mph - N/A   Mostly Cloudy
2:30 PM 82.4 °F 90.9 °F 77.0 °F 84% 29.65 in 3.1 mi WSW 11.5 mph 23.0 mph N/A Rain Light Rain
3:00 PM 82.4 °F 90.9 °F 77.0 °F 84% 29.65 in 4.3 mi SW 11.5 mph 23.0 mph N/A   Drizzle
3:30 PM 82 °F - 76 °F 78% 29.68 in 4 mi SW 1.2 mph - -   Mostly Cloudy
3:30 PM 82.4 °F 90.9 °F 77.0 °F 84% 29.65 in 4.3 mi WSW 11.5 mph 20.7 mph N/A   Mostly Cloudy
4:00 PM 84.2 °F 96.1 °F 78.8 °F 84% 29.65 in 5.0 mi WSW 11.5 mph - N/A   Scattered Clouds
4:30 PM 84.2 °F 96.1 °F 78.8 °F 84% 29.65 in 5.0 mi WSW 11.5 mph 23.0 mph N/A   Mostly Cloudy
6:00 PM 82.4 °F 90.9 °F 77.0 °F 84% 29.65 in 4.3 mi SW 4.6 mph - N/A   Mostly Cloudy
6:30 PM 81 °F - 75 °F 78% 29.67 in 4 mi SSW 1.2 mph - -   Mostly Cloudy
6:30 PM 80.6 °F 86.2 °F 75.2 °F 84% 29.65 in 4.3 mi SW 3.5 mph - N/A   Mostly Cloudy
7:30 PM 80.6 °F 86.2 °F 75.2 °F 84% - 4.3 mi SW 5.8 mph - N/A   Mostly Cloudy
8:00 PM 80.6 °F 86.2 °F 75.2 °F 84% - 4.3 mi SW 4.6 mph - N/A   Mostly Cloudy
8:30 PM 80.6 °F 86.2 °F 75.2 °F 84% - 4.3 mi WSW 4.6 mph - N/A   Mostly Cloudy
9:00 PM 80.6 °F 86.2 °F 75.2 °F 84% 29.68 in 4.3 mi SSW 9.2 mph - N/A   Mostly Cloudy
9:30 PM 79 °F - 76 °F 89% 29.74 in 3 mi SW 1.2 mph - -   Partly Cloudy
10:30 PM 78.8 °F - 77.0 °F 94% 29.71 in 4.3 mi SSW 4.6 mph - N/A   Mostly Cloudy